Dewpoint
23 24 23 22 22 21 22 22 22 23 23 22 22 22 22 23 22 21 21 20 19 18 18 17 17 17 17 17 16 16 15 13 15 13 13 11 10 14 14 12 9 9 12 12 13 14 14 13 14 15 15 14 15 15 14 14 15 15 16 16 15 15 14 13 11 11 11 11 12 12 13 13 12 15 14 14 14 15 19 16 17 17 17 17 17
22 22 22 21 21 21 21 22 23 23 22 22 22 22 21 20 20 19 17 19 18 18 17 17 15 15 15 14 13 14 12 12 11 8 8 9 8 16 15 9 6 6 8 8 11 15 12 11 13 13 15 13 14 12 12 13 12 13 13 15 12 12 13 12 10 10 9 9 10 12 12 13 12 13 14 13 13 15 14 15 16 16 16 15 14
22 21 21 20 20 20 21 22 22 21 21 21 20 20 19 18 18 17 16 16 17 16 15 15 14 13 12 13 12 10 9 7 7 7 7 6 6 5 11 5 5 5 6 7 9 11 10 11 10 11 16 10 10 11 12 11 12 11 10 11 10 10 11 12 11 10 10 10 11 11 11 12 12 12 12 13 14 14 13 12 13 14 15 14 14
21 20 20 20 20 20 20 21 20 19 19 19 18 17 17 16 17 16 15 15 14 15 13 12 12 10 10 8 8 6 6 4 4 3 6 3 2 5 3 3 4 5 7 8 8 9 10 10 9 9 9 9 9 9 10 10 9 9 10 10 11 11 12 13 13 12 11 10 10 10 11 10 10 10 12 11 11 11 11 11 11 11 12 14 13
20 20 19 18 18 18 19 19 18 17 17 16 14 13 13 13 14 13 12 12 12 11 11 8 6 8 10 8 6 4 3 4 5 3 2 0 0 3 1 3 6 7 9 9 18 13 10 10 9 9 9 9 9 9 9 9 9 10 10 11 12 12 12 12 11 11 10 9 9 10 10 10 11 10 10 10 10 10 11 10 10 10 11 12 14
20 19 18 17 17 16 16 16 15 14 13 12 11 11 10 10 10 11 11 9 7 7 6 7 4 3 4 4 2 2 1 0 0 0 -0 -0 -0 0 3 5 8 10 11 11 11 11 11 11 10 10 9 9 9 9 9 9 10 11 11 12 13 12 12 11 11 11 10 10 10 10 10 10 9 9 10 10 10 9 8 8 8 9 9 8 9
19 18 16 15 15 14 14 14 13 13 12 10 9 8 8 8 7 8 8 4 2 2 1 2 6 1 2 2 2 1 1 0 1 1 1 0 0 2 6 10 12 13 14 13 13 12 12 11 11 10 9 9 8 8 9 11 11 12 13 13 13 12 12 12 12 12 11 11 10 10 9 9 9 8 9 10 9 8 7 6 7 8 8 8 9
18 16 14 14 14 13 13 13 13 13 11 9 7 6 6 6 6 6 6 3 3 2 2 1 4 2 2 1 1 3 2 2 0 -0 -0 1 7 12 14 15 15 15 14 14 14 14 13 13 12 11 10 9 8 9 12 13 13 13 14 13 13 12 12 13 12 12 11 10 10 9 9 9 9 9 9 8 7 7 7 7 7 7 8 8 8
17 15 14 13 13 13 14 14 14 15 12 10 8 7 7 6 6 6 6 5 5 2 2 2 2 2 1 1 0 1 0 -1 -1 -1 5 11 15 16 16 16 15 15 15 15 15 15 14 13 12 10 12 18 17 17 17 17 15 13 12 13 13 13 14 14 13 12 11 10 9 9 9 9 9 8 8 8 7 7 8 8 8 8 8 7 7
15 14 13 13 14 13 14 16 15 14 12 11 9 8 7 8 8 8 8 6 5 4 2 3 2 2 2 1 0 0 0 0 8 12 15 14 17 17 17 15 15 15 16 15 15 15 14 13 13 18 16 16 16 17 17 17 17 16 14 14 15 15 15 14 13 13 12 11 10 9 9 9 9 9 8 8 9 9 9 8 8 8 8 8 8
15 14 13 13 14 14 15 16 15 15 14 12 14 11 10 12 13 12 10 8 7 6 3 3 3 2 2 1 1 1 1 2 10 15 17 20 19 18 17 16 17 16 15 15 15 15 15 13 11 12 15 16 13 12 13 14 15 16 17 17 16 14 14 14 13 13 13 12 12 12 12 11 10 10 10 10 10 10 10 9 9 8 9 9 9
15 14 14 14 15 15 16 17 17 16 16 16 15 15 15 15 14 13 12 10 9 8 5 4 3 2 2 1 1 2 1 10 13 16 19 20 21 19 18 18 18 17 16 15 15 15 15 14 10 8 6 7 8 8 12 14 14 14 15 15 16 17 17 16 15 14 14 13 13 13 13 12 12 12 11 11 11 11 10 10 10 10 10 10 10
15 15 14 15 15 16 17 17 18 18 17 15 15 15 14 13 14 13 12 11 11 9 6 5 4 3 2 2 1 2 2 9 15 17 19 20 21 21 20 19 18 17 16 16 16 15 15 12 9 7 6 12 13 9 7 6 13 12 14 15 16 16 17 19 20 17 16 16 15 15 14 13 13 13 13 12 13 11 11 11 11 11 11 11 11
16 16 16 16 16 17 18 20 19 18 17 16 15 15 14 14 14 14 13 12 11 8 6 6 5 3 3 2 2 2 2 9 14 17 18 20 21 21 20 19 18 17 16 16 16 15 13 9 8 7 7 7 6 5 5 6 7 8 10 11 11 14 19 20 20 21 20 16 15 15 14 14 13 13 13 15 13 13 13 13 13 13 13 13 13
17 16 17 17 18 19 19 20 19 18 17 16 15 15 14 14 15 14 13 12 10 9 8 8 7 6 4 2 2 2 2 10 14 16 18 20 21 22 20 18 17 17 17 16 15 12 10 9 9 8 7 7 7 9 9 10 13 15 16 16 17 16 16 15 14 14 15 15 14 14 14 14 14 14 14 15 15 15 15 15 16 17 17 18 19
17 17 17 18 19 19 20 20 20 19 17 16 15 15 15 15 14 13 11 10 7 8 7 7 8 7 5 3 2 3 3 13 16 17 18 20 22 20 18 17 16 16 15 14 13 12 11 10 9 8 8 8 12 15 16 15 17 17 17 18 18 18 18 20 22 23 21 20 19 19 19 18 21 20 20 21 21 21 22 21 21 20 19 17 16
16 17 17 18 19 19 20 20 20 19 18 17 16 16 16 14 13 11 10 11 10 10 9 8 8 7 5 4 4 4 3 10 15 17 18 21 21 18 17 16 14 13 13 12 12 12 12 11 10 9 9 9 14 18 19 20 19 19 19 19 19 19 20 20 20 20 20 20 21 22 23 24 24 24 25 25 21 20 17 16 16 17 16 15 15
17 17 18 20 19 19 20 21 20 19 18 17 16 16 14 12 12 11 10 10 10 9 8 7 6 6 6 5 5 3 3 8 14 16 18 20 20 17 15 14 13 13 14 13 13 13 12 15 15 13 12 12 17 19 21 20 20 19 19 19 19 17 16 16 15 14 19 21 22 22 21 21 21 21 20 20 21 19 14 12 13 14 13 14 14
18 18 18 18 19 20 21 21 21 20 18 18 16 15 14 13 12 11 9 9 9 8 8 6 4 3 4 4 9 6 3 7 14 17 18 19 20 18 15 14 13 13 12 13 13 13 12 14 15 15 15 16 20 21 21 20 20 20 19 18 16 15 15 15 14 16 18 16 14 12 11 13 11 10 11 18 18 16 10 11 12 12 12 13 14
18 18 17 18 19 21 21 22 21 20 19 18 16 15 14 11 10 10 8 9 8 7 6 6 4 4 3 3 3 6 5 3 6 16 18 20 22 17 15 13 12 12 13 13 13 13 13 13 15 18 19 20 20 21 21 21 20 19 18 16 15 13 14 15 18 17 14 11 9 9 9 8 9 8 8 8 9 11 10 9 10 11 11 12 13
19 19 18 19 20 21 21 21 21 21 20 18 17 14 13 13 10 8 7 7 7 5 4 3 2 2 2 3 2 2 3 2 4 15 18 19 21 21 15 14 14 13 12 13 13 13 13 14 15 17 18 19 20 20 21 22 21 18 17 14 13 15 18 17 14 13 8 7 7 7 7 7 7 8 8 9 10 11 10 10 9 9 10 10 11
19 19 20 20 20 20 20 20 20 20 18 16 15 14 12 11 10 8 6 6 5 4 2 2 2 1 1 2 1 1 3 6 1 11 17 19 21 22 18 15 15 13 13 13 13 13 14 15 15 16 18 19 20 21 22 21 20 17 14 16 18 19 16 13 8 5 5 4 4 4 4 4 5 5 6 6 7 8 7 7 6 6 6 7 8
20 20 20 20 19 20 19 18 18 17 16 15 15 13 10 9 7 6 5 4 3 2 1 1 1 1 1 2 2 2 1 4 12 8 14 18 21 22 23 19 19 16 14 13 13 15 16 16 15 17 19 19 20 21 21 20 18 14 16 18 18 18 14 4 5 3 3 3 2 2 2 2 2 3 4 5 6 7 6 6 6 5 7 7 8
21 21 20 20 19 18 17 16 16 15 15 14 13 11 9 8 6 5 5 4 3 2 2 1 1 0 0 1 3 3 3 2 8 14 13 17 20 22 23 23 22 18 17 16 17 17 16 15 17 18 18 20 20 19 19 17 13 16 16 17 17 14 6 2 -1 -0 2 1 1 1 1 2 2 2 3 4 4 4 4 4 4 4 5 7 6
21 20 20 19 18 17 14 14 14 13 12 13 12 10 7 5 5 3 3 4 3 2 2 2 1 1 1 2 2 3 3 4 3 9 16 17 19 21 22 23 23 23 19 19 18 17 18 19 20 19 20 19 18 17 15 13 14 15 16 16 13 1 0 -3 -1 -3 -2 -1 0 1 1 2 2 2 3 3 4 5 5 5 6 6 7 8 9
19 20 19 18 17 14 13 10 10 10 10 11 12 11 9 6 6 4 3 3 3 3 3 3 2 2 2 2 3 4 4 3 3 4 10 14 17 19 20 21 21 22 21 19 20 20 20 20 20 20 18 15 13 10 8 7 13 15 14 10 1 -1 -2 -2 -4 -3 -2 -0 1 1 1 2 2 2 2 3 3 3 4 4 4 5 6 6 7
18 16 16 16 13 13 13 13 10 7 7 7 8 9 8 6 6 5 3 3 3 3 4 4 4 3 3 3 3 4 4 4 4 5 6 8 11 13 15 17 19 20 18 17 17 17 18 18 17 17 16 16 15 13 10 9 7 4 1 1 -0 -2 0 -3 -2 -1 0 -0 1 1 1 2 3 3 2 2 2 3 4 5 5 5 5 6 6
17 16 15 14 14 12 13 10 9 8 6 7 7 7 7 7 6 6 4 4 3 3 3 3 4 4 3 3 3 3 3 4 5 5 6 7 8 9 10 12 12 14 14 15 15 16 15 16 14 8 4 1 1 -2 -0 -1 2 1 -1 -2 -2 0 4 6 6 1 1 1 1 2 2 1 1 1 2 2 2 3 4 4 4 4 5 5 4
12 10 10 10 12 10 10 9 9 8 6 4 6 7 7 6 6 7 6 4 5 5 4 4 5 5 4 4 3 2 3 4 5 12 8 13 9 9 10 11 12 13 15 17 15 13 12 10 7 6 1 -1 -3 -4 -4 -4 -2 -2 -4 -5 -4 -4 -5 -5 -4 -2 -2 -2 -1 -1 0 0 0 1 2 2 2 3 4 3 4 4 4 4 4
9 9 8 9 7 6 6 7 6 7 6 4 3 2 5 12 11 5 4 10 12 13 13 7 6 5 5 5 5 3 3 4 11 15 15 16 17 17 16 16 17 16 17 17 17 11 10 8 6 4 1 -4 -5 -4 -3 -5 -5 -5 -6 4 -0 -4 -3 -4 -4 -2 -2 -2 -1 -1 -1 -0 0 1 2 2 2 3 4 6 3 4 3 3 2
10 10 10 11 10 9 6 5 5 4 4 3 2 2 1 4 13 14 13 11 11 13 15 14 14 14 7 4 8 12 12 11 13 15 16 17 18 18 19 19 19 20 20 18 14 10 8 6 4 1 -1 -4 -3 -2 -4 -5 -4 -5 -5 -6 -7 -3 -2 -5 -5 -3 -2 -1 -1 -1 -1 -0 1 2 2 2 2 2 3 3 3 3 3 2 2
13 13 11 9 9 8 7 6 5 4 4 3 2 2 2 2 2 10 15 15 14 14 14 16 16 15 14 11 7 6 12 13 14 15 16 17 18 19 19 20 21 21 21 20 11 9 7 5 3 -1 -4 -4 -1 -3 -4 -5 -6 -6 -7 -7 -4 -6 -3 -4 -2 -3 -3 -3 -3 -1 -0 1 1 2 2 2 3 2 2 2 2 2 3 3 3
12 10 9 9 8 8 7 6 5 4 3 3 2 2 3 2 3 3 8 14 17 17 16 16 17 17 18 18 15 11 10 13 15 18 19 20 20 20 20 21 21 21 20 17 11 9 6 5 2 -2 -3 -2 -2 -5 -6 -7 -7 -7 -8 -7 -5 -3 -3 -2 -1 -2 -3 -2 -1 -1 -0 0 2 2 2 2 2 1 2 2 2 2 2 2 2
8 7 7 6 7 6 6 5 5 4 4 3 3 3 3 3 3 4 4 7 12 16 19 19 18 18 19 20 20 20 19 18 19 20 20 20 20 20 20 18 20 20 19 13 9 8 6 3 0 -2 -3 -3 -4 -6 -6 -7 -7 -8 -7 -4 -4 -4 -3 -4 -5 -4 -4 -3 -3 -2 -0 0 1 1 1 1 1 2 1 2 2 2 2 2 2
4 6 7 5 4 4 4 5 3 2 1 2 2 2 2 1 3 3 4 4 6 8 10 12 15 20 18 18 19 20 20 20 20 20 20 20 20 19 19 16 15 14 15 11 8 6 3 1 -1 -2 -4 -4 -4 -6 -5 -9 -9 -8 -7 -6 -6 -5 -4 -3 -5 -4 -4 -4 -4 -3 -1 0 -0 1 1 0 0 0 1 2 2 2 2 2 3
3 4 3 2 1 1 0 0 -1 1 -1 -1 -1 -1 -1 -2 -1 -1 -0 -1 -1 0 1 4 5 13 14 16 17 17 17 17 18 18 18 18 18 18 14 13 12 11 10 8 6 4 2 0 -2 -3 -6 -6 -7 -7 -7 -8 -8 -7 -8 -9 -6 -6 -7 -6 -5 -5 -5 -4 -3 -1 1 -1 -1 0 -0 0 -0 1 1 1 2 3 3 3 4
1 1 -0 -2 -3 -0 -2 -3 -3 -2 7 -0 -2 -3 -4 -3 -2 -4 -4 -3 -2 -2 -0 0 3 2 5 5 6 10 14 15 16 16 17 17 17 15 13 12 10 9 8 7 4 2 -1 -2 -4 -6 -7 -6 -8 -7 -9 -8 -8 -9 -3 -5 -7 -7 -7 -7 -6 -4 -5 -4 -4 -4 -4 -3 -2 -2 -1 -1 0 -0 0 1 2 3 4 3 3
-4 -2 -1 -4 -1 -5 -4 -2 -3 3 -3 -5 -4 -3 -4 -5 -4 -4 -3 -3 -1 -0 -0 0 2 1 0 1 4 6 4 10 12 14 15 15 13 12 12 11 10 9 7 4 1 -1 -2 -4 -7 -6 -6 -7 -8 -10 -10 -10 -10 -11 -9 -10 -8 -7 -3 -3 -3 -5 -6 -5 -5 -4 -3 -2 -2 -2 -0 -1 -1 -1 -0 1 2 3 2 2 2
-3 4 5 4 6 -4 -4 -4 -4 -5 -5 -5 -4 -4 -4 -4 -4 -3 -3 -1 -1 -1 -1 -1 -1 -1 0 1 3 5 5 2 1 1 3 4 6 7 7 7 7 7 5 3 -1 -3 -4 -5 -6 -7 -7 -8 -7 -10 -10 -9 -12 -10 -10 -11 -9 -9 -8 -8 -8 -8 -7 -7 -6 -5 -4 -3 -3 -2 -1 -1 -1 -1 -1 1 3 3 1 1 1
-3 -1 2 5 1 1 -2 -2 -3 -4 -4 -5 -5 -4 -3 -2 -2 -2 -2 -2 -2 -2 -2 -2 -2 -1 -0 2 1 1 -1 -2 -2 -1 -1 -1 0 2 4 4 4 4 3 2 -1 -2 -4 -5 -6 -7 -7 -8 -8 -9 -10 -10 -10 -10 -12 -10 -10 -9 -9 -9 -9 -9 -8 -8 -7 -6 -5 -5 -4 -2 -2 -2 -1 -1 0 1 2 2 2 1 1
-4 -0 1 4 2 -0 -1 -2 -4 -5 -6 -5 -3 -2 -3 -3 -5 -4 -5 -4 -4 -3 -3 -3 -3 -2 -1 -1 5 5 -0 -3 -3 -3 -3 -2 -1 -1 0 1 2 2 1 -0 -1 -3 -4 -6 -7 -7 -8 -8 -9 -9 -10 -11 -11 -11 -11 -9 -10 -8 -8 -9 -10 -9 -9 -8 -8 -8 -7 -6 -4 -3 -3 -2 1 0 -0 1 2 1 1 1 2
-0 0 0 0 0 -4 -6 -6 -6 -4 -6 -5 -4 -5 -6 -5 -5 -4 -4 -4 -4 -4 -4 -4 -4 -3 -2 3 5 8 5 3 -1 -3 -3 -3 -3 -2 -1 -1 -1 -1 -1 -2 -4 -5 -6 -7 -7 -8 -8 -9 -9 -10 -12 -13 -12 -11 -11 -11 -10 -10 -9 -9 -10 -11 -11 -10 -9 -9 -8 -6 -4 -3 -2 0 -2 -2 -1 0 1 1 1 1 1
-2 -2 -2 -3 -4 -5 -5 -4 -3 -5 -6 -6 -6 -4 -5 -5 -5 -5 -5 -6 -5 -6 -8 -8 -10 -10 -8 -2 -3 -1 -2 -2 -1 0 0 -1 -2 -2 -2 -1 -2 -3 -4 -5 -5 -7 -7 -8 -8 -8 -9 -9 -9 -10 -10 -11 -13 -13 -12 -12 -11 -11 -11 -10 -11 -10 -12 -11 -10 -9 -9 -8 -6 -6 -5 -3 -2 -2 -1 -0 0 0 -0 -0 -0
-3 -3 -4 -6 -7 -7 -7 -8 -9 -8 -7 -6 -5 -5 -6 -7 -8 -10 -11 -12 -11 -12 -12 -12 -12 -12 -12 -10 -6 -8 -10 -8 -7 -6 -6 -4 -2 -1 -1 -3 -5 -5 -6 -7 -8 -9 -9 -11 -12 -12 -13 -12 -12 -15 -13 -12 -15 -14 -13 -12 -11 -11 -11 -11 -11 -12 -13 -13 -12 -11 -11 -9 -7 -6 -5 -4 -4 -4 -2 -1 -0 -1 -1 -1 -1
-5 -6 -8 -10 -12 -13 -13 -12 -12 -13 -10 -11 -12 -12 -10 -12 -12 -12 -13 -14 -13 -13 -13 -13 -14 -15 -14 -15 -15 -13 -12 -11 -10 -11 -9 -9 -8 -7 -8 -9 -9 -7 -7 -7 -7 -9 -10 -10 -12 -15 -15 -14 -13 -13 -13 -13 -14 -13 -12 -12 -13 -12 -12 -12 -12 -15 -15 -15 -12 -11 -10 -9 -8 -8 -7 -7 -5 -4 -1 -1 -1 0 -1 -2 -2
-7 -9 -11 -12 -13 -13 -14 -16 -12 -15 -15 -15 -16 -16 -15 -15 -16 -15 -14 -14 -14 -14 -15 -15 -16 -16 -15 -16 -16 -14 -12 -14 -13 -12 -12 -12 -11 -10 -10 -10 -9 -10 -9 -8 -8 -10 -10 -11 -12 -12 -13 -13 -14 -14 -14 -15 -13 -13 -13 -13 -12 -12 -12 -12 -15 -14 -13 -14 -13 -12 -11 -10 -10 -9 -8 -7 -5 -3 -2 -1 -1 -1 -2 -2 -2
-13 -13 -14 -14 -15 -14 -14 -14 -16 -16 -17 -16 -16 -16 -17 -17 -17 -16 -14 -15 -17 -15 -17 -18 -18 -17 -16 -17 -15 -16 -14 -15 -14 -16 -14 -14 -15 -12 -12 -13 -11 -12 -11 -12 -15 -11 -12 -12 -12 -13 -13 -14 -15 -15 -15 -14 -15 -14 -14 -13 -13 -12 -12 -12 -12 -13 -12 -13 -12 -13 -12 -11 -11 -10 -10 -9 -7 -4 -2 -1 -1 -2 -2 -2 -3
-17 -16 -16 -15 -16 -17 -17 -17 -16 -13 -16 -16 -17 -17 -16 -17 -17 -17 -18 -18 -18 -18 -18 -18 -19 -18 -17 -15 -16 -16 -17 -16 -16 -15 -15 -14 -15 -14 -13 -14 -13 -13 -17 -17 -18 -15 -14 -14 -14 -15 -15 -15 -15 -14 -14 -14 -15 -14 -15 -14 -13 -13 -12 -10 -14 -14 -15 -15 -14 -14 -13 -12 -11 -10 -9 -8 -7 -4 -2 -2 -2 -3 -3 -2 -2
-17 -18 -18 -17 -17 -17 -17 -16 -16 -18 -18 -18 -17 -18 -17 -18 -18 -19 -19 -19 -19 -18 -20 -19 -18 -19 -18 -16 -17 -17 -18 -17 -17 -18 -15 -15 -15 -15 -13 -14 -15 -14 -16 -14 -15 -15 -15 -14 -15 -15 -16 -16 -16 -15 -14 -14 -14 -15 -16 -15 -14 -11 -10 -9 -10 -12 -10 -11 -13 -12 -12 -11 -11 -9 -8 -6 -4 -2 -1 -2 -3 -3 -3 -2 -2
-17 -16 -17 -17 -17 -16 -15 -17 -16 -17 -17 -17 -19 -20 -19 -18 -19 -19 -19 -19 -20 -19 -20 -19 -17 -17 -18 -16 -17 -16 -18 -16 -15 -15 -15 -15 -14 -14 -14 -14 -15 -16 -15 -15 -16 -16 -16 -17 -17 -18 -17 -17 -16 -15 -15 -15 -15 -15 -17 -15 -12 -11 -10 -10 -10 -9 -10 -14 -13 -12 -11 -10 -9 -7 -6 -4 -4 -3 -2 -3 -3 -2 -2 -3 -3
-16 -17 -17 -16 -15 -15 -16 -17 -18 -19 -21 -20 -21 -21 -20 -20 -19 -20 -19 -19 -18 -18 -19 -18 -19 -18 -18 -16 -17 -16 -16 -16 -15 -15 -15 -14 -14 -14 -14 -15 -15 -17 -18 -17 -17 -16 -16 -15 -15 -16 -17 -16 -15 -15 -15 -16 -16 -16 -13 -12 -11 -11 -11 -10 -11 -9 -9 -9 -9 -9 -8 -8 -7 -5 -3 -4 -4 -3 -2 -2 -2 -3 -3 -3 -4